Location: Siratepeler Tepesi
(39.1042°N, 32.0781°E)
Time: 12:16:55
(UTC+00:00)

Daily predictions for brighter satellites

Satellite Brightness Start Highest point End
(mag) Time Altitude Azimuth Time Altitude Azimuth Time Altitude Azimuth
USA 229 DEB 4.4 16:40:22 10° SW 16:46:06 54° NW 16:52:31 10° NNE
USA 229 4.3 16:40:24 10° SW 16:46:09 55° NW 16:52:35 10° NNE
CZ-2D R/B 3.7 16:45:32 10° S 16:49:36 72° WSW 16:53:37 10° NNW
NOSS 2-2 (D) 3.8 16:45:34 10° NNW 16:49:38 72° ENE 16:55:19 10° SE
Okean 1-7 3.4 16:48:59 10° N 16:52:51 39° ENE 16:56:42 10° SSE
Cosmos 2278 4.2 16:49:15 10° SSW 16:54:52 69° WNW 17:00:33 10° NNE
Spot 4 Rocket 4.3 16:50:12 10° S 16:55:18 77° WSW 17:00:25 10° NNW
Cosmos 1328 3.8 16:52:13 10° N 16:55:37 45° E 16:59:00 10° SSE
Aureole 1 Rocket 2.2 16:53:17 10° SSW 16:56:52 76° ESE 16:59:58 10° NNE
Cosmos 1862 Rocket 3.8 16:53:27 10° N 16:57:47 51° E 17:02:02 10° SSE
Cosmos 1707 Rocket 3.8 16:54:14 10° N 16:58:23 46° E 17:02:30 10° SSE
Cosmos 2360 Rocket 2.2 16:54:02 10° SSW 16:59:38 82° ESE 17:05:18 10° NNE
Cosmos 1844 Rocket 2.7 16:55:28 10° NNW 17:01:04 89° WSW 17:06:38 10° SSE
Cosmos 1441 Rocket 3.5 17:00:14 10° N 17:03:23 35° ENE 17:06:29 10° SE
Cosmos 2184 Rocket 4.2 16:58:12 10° SSE 17:04:22 55° E 17:10:33 10° NNE
SL-19 R/B 4.2 17:01:55 10° SSE 17:07:07 87° WSW 17:12:28 10° NNW
Cosmos 2322 Rocket 2.4 17:01:55 10° SSW 17:07:31 79° WNW 17:13:09 10° NNE
Cosmos 2228 Rocket 3.5 17:03:35 10° N 17:07:52 43° E 17:12:03 10° SSE
Helios 1A Rocket 3.2 17:05:48 10° NE 17:08:36 27° E 17:11:21 10° SSE
BREEZE-M DEB (TANK) 3.4 17:07:32 10° NW 17:09:44 41° NNE 17:15:16 11° E
Cosmos 1666 Rocket 3.6 17:10:29 10° S 17:14:45 84° W 17:19:03 10° N
SL-16 R/B 3.9 17:10:19 10° SW 17:15:32 38° WNW 17:20:48 10° N
Cosmos 1633 Rocket 3.0 17:11:30 10° S 17:15:52 81° E 17:20:15 10° N
BlueWalker 3 1.9 17:12:49 10° NW 17:16:25 72° SW 17:19:29 13° SE
Aureole 2 4.4 17:13:34 10° NNW 17:17:02 62° ENE 17:20:17 11° SSE
Cosmos 1340 Rocket 3.0 17:15:16 10° SSW 17:18:54 65° W 17:22:32 10° N
CSL-04 Debris 4.4 17:14:01 10° SE 17:19:07 47° ENE 17:24:14 10° N
Meteor 1-22 Rocket 4.4 17:13:52 10° SSW 17:19:25 78° W 17:25:14 10° N
Terra 3.2 17:17:03 14° ESE 17:19:35 21° ENE 17:23:04 10° NNE
Atlas Centaur 2 3.7 17:15:07 10° WSW 17:19:53 27° SSW 17:25:12 11° SE
Cosmos 1898 Rocket 3.4 17:17:04 10° SSW 17:22:19 80° ESE 17:27:33 10° NNE
Resurs 01 Rocket 3.3 17:23:28 10° SSW 17:27:28 35° W 17:31:29 10° NNW
CZ-4 R/B 1.7 17:25:09 15° SE 17:27:57 41° ENE 17:31:32 10° N
Okean O Rocket 3.5 17:29:29 12° ENE 17:30:12 13° ENE 17:32:09 10° NE
CENTAUR R/B 4.0 17:23:43 10° NW 17:32:16 59° WSW 17:41:31 10° SSE
SL-08 R/B 4.3 17:29:23 10° NE 17:33:34 28° E 17:36:20 17° SE
Meteor 1-24 Rocket 3.7 17:29:03 10° N 17:34:33 87° E 17:40:13 10° S
Cosmos 2074 Rocket 4.1 17:29:57 10° S 17:36:09 81° W 17:42:26 10° N
Cosmos 2219 Rocket 2.2 17:30:35 10° SSW 17:36:09 83° WNW 17:41:47 10° NNE
Cosmos 1538 Rocket 3.9 17:31:35 10° NNW 17:36:45 83° ENE 17:41:35 12° SSE
CZ-3C R/B 3.8 17:34:06 10° WSW 17:37:47 12° SW 17:40:05 10° SSW
SPOT 5 2.8 17:34:20 10° SSE 17:39:12 89° ENE 17:43:50 10° NNW
Cosmos 1937 Rocket 3.5 17:38:41 10° SSW 17:43:58 89° WNW 17:49:17 10° NNE
Tiangong -0.9 17:41:36 10° W 17:44:27 32° SSW 17:45:27 25° S
CZ-4B R/B 3.5 17:43:01 17° SSE 17:45:41 89° ENE 17:49:21 10° NNW
Cosmos 1339 Rocket 4.5 17:42:03 10° N 17:48:16 62° E 17:53:19 16° SSE
USA 234 4.5 17:43:05 10° NE 17:49:08 41° NNW 17:55:11 10° W
Meteor 1-31 Rocket 2.5 17:46:52 19° S 17:49:19 84° WSW 17:52:52 10° NNW
COSMOS 2428 3.0 17:47:51 10° S 17:53:11 42° ESE 17:58:32 10° NE
IRAS Rocket 4.4 17:48:49 10° S 17:54:20 75° WSW 17:59:51 10° NNW
PAYLOAD B 4.2 17:51:41 21° SSE 17:55:23 65° ENE 18:00:50 10° N
CZ-4B R/B 3.4 17:53:16 26° SE 17:56:13 53° ENE 18:01:39 10° N
Cosmos 923 Rocket 4.2 17:51:08 10° N 17:56:20 53° ENE 17:58:34 31° SE
CZ-4B DEB 4.1 17:52:39 18° SSE 17:56:49 77° ENE 18:02:18 10° N
MetOp-B 4.3 17:54:19 26° SE 17:57:07 54° ENE 18:02:20 10° N
CSL-04 Rocket 4.0 17:51:55 10° S 17:57:23 70° WSW 18:02:56 10° NNW
Cosmos 2366 rocket 4.4 17:55:28 24° SE 17:58:30 39° E 18:04:09 10° NNE
Cosmos 2327 Rocket 4.4 17:55:45 10° S 18:01:46 65° E 18:07:56 10° NNE
NOSS 3-2 (C) 4.4 17:57:00 10° NNW 18:04:23 56° NE 18:08:57 29° ESE
Cosmos 2278 Rocket 3.7 18:00:57 10° N 18:04:55 19° NE 18:05:59 18° ENE
SKYMED 3 4.1 18:08:55 10° NNE 18:12:49 87° ESE 18:14:26 34° S
NOSS 3-2 (A) 4.4 18:05:10 10° NW 18:12:53 71° WSW 18:19:22 21° SSE
Spot 2 Rocket 3.9 18:13:51 39° E 18:14:27 40° ENE 18:19:08 10° N
Cosmos 1703 Rocket 3.8 18:15:29 10° NNW 18:19:45 64° W 18:21:38 31° SSW
ERS-1 Rocket 2.9 18:17:55 33° S 18:20:15 82° WSW 18:25:16 10° NNW
Cosmos 2218 Rocket 3.9 18:21:24 37° SSE 18:23:42 59° E 18:29:42 10° NNE
Lacrosse 5 rocket 2.9 18:21:55 10° W 18:24:40 26° NW 18:27:17 11° NNE
Cosmos 1933 Rocket 4.0 18:21:40 14° SSW 18:25:23 60° W 18:29:44 10° N
Meteor 2-15 4.4 18:27:13 46° SE 18:28:34 56° E 18:34:29 10° NNE
Cosmos 1943 Rocket 2.9 18:25:59 10° N 18:31:10 35° ENE 18:31:28 35° ENE
MOS 1-B 4.4 18:31:09 52° ESE 18:32:13 61° ENE 18:37:55 10° N
Cosmos 1959 Rocket 4.4 18:31:23 40° SSE 18:33:41 67° E 18:39:59 10° NNE
In-Cosmos 22 Rocket 3.9 18:31:02 10° N 18:36:24 83° E 18:37:17 63° SSE
YAOGAN 11 4.0 18:32:48 10° NNE 18:36:42 75° NNE 18:36:42 75° NNE
Cosmos 1821 Rocket 4.0 18:37:50 53° ESE 18:38:18 54° E 18:44:24 10° NNE
Okean-O 2.8 18:43:16 60° NNE 18:43:16 60° NNE 18:46:58 10° N
Cosmos 494 Rocket 3.8 18:41:12 10° NNW 18:46:24 85° ENE 18:46:33 83° ESE
ADEOS 4.3 18:52:04 35° SSW 18:53:43 47° W 18:58:45 10° NNW
Terra 3.0 18:55:40 32° SW 18:56:49 38° W 19:01:12 10° NNW
BREEZE-M DEB (TANK) 4.5 18:52:56 10° NW 18:57:57 42° NNW 18:57:57 42° NNW
Meteor 2-21 4.4 18:52:45 10° N 18:58:41 64° ENE 18:58:41 64° ENE
CZ-4 R/B 4.1 19:00:33 10° WSW 19:02:09 12° W 19:03:43 10° WNW
Cosmos 2237 Rocket 3.1 19:05:50 36° NE 19:05:50 36° NE 19:09:09 10° NNE
Cosmos 1980 4.4 19:06:16 42° NE 19:06:16 42° NE 19:09:58 10° NNE
Okean O Rocket 2.5 19:06:43 48° NW 19:06:43 48° NW 19:10:10 10° NNW
ASTEX 1 4.1 19:11:29 48° N 19:11:29 48° N 19:14:59 10° N
SPOT 3 Rocket 4.2 19:21:38 51° N 19:21:38 51° N 19:25:29 10° NNW
Cosmos 2369 Rocket 4.4 19:37:14 10° NNE 19:39:12 14° NE 19:39:12 14° NE
Ariane Rocket 4.4 19:46:48 35° NNW 19:46:48 35° NNW 19:49:43 10° NNW
Cosmos 1727 Rocket 4.3 19:38:23 10° N 19:43:48 63° NW 19:43:48 63° NW
USA 238 DEB 4.0 19:37:34 10° NNW 19:44:50 68° NE 19:44:50 68° NE
USA 238 4.1 19:37:45 10° NNW 19:45:00 68° NE 19:45:00 68° NE
Cosmos 2278 Rocket 3.1 19:43:51 10° NNW 19:47:49 44° NW 19:47:49 44° NW
Cosmos 1943 Rocket 4.0 20:09:51 10° NW 20:12:59 26° WNW 20:12:59 26° WNW
Cosmos 2237 Rocket 4.5 20:47:31 18° WNW 20:48:04 18° NW 20:51:58 10° N
ACS3 Solar Sail 4.1 21:55:41 10° NE 21:56:52 14° NE 21:56:52 14° NE
USA 281 4.4 22:41:15 36° NNE 22:41:15 36° NNE 22:46:01 10° N
Cosmos 1697 Rocket 4.4 23:21:46 10° N 23:24:53 29° NNE 23:24:53 29° NNE
Cosmos 1980 Rocket 4.1 23:37:50 10° N 23:42:33 26° NE 23:45:53 16° ESE
ACS3 Solar Sail 3.0 23:36:57 10° N 23:40:25 35° NNW 23:40:25 35° NNW
